MSR905 EGKK-HECA

Flight info

Callsign MSR905
Flight time N/A
Altitude 37000
Route ODVIK2Z/08R ODVIK Y311 DVR UL9 KONAN UL607 REMBA DCT LIRSU DCT NONKO DCT VIBOM DCT NOMBO DCT RIDAR DCT LATLO DCT OBEDI DCT PODET DCT LURID DCT DOBOT DCT VEBAR DCT RAMAP DCT VAGEN DCT RAXAD DCT SIN DCT RUGAS UN128 FSK UG18 MES UN139 KUMBI L612 BLT A16 CVO
Aircraft B738/M-SDE2E3FGHIRWXY/LB1

Departure

Time N/A
Airport London Gatwick Airport (EGKK)

Arrival

Time 2026-05-07 14:45
Airport Cairo International Airport (HECA)
Time Latitude Longitude Altitude Speed Heading
2026-05-07 12:05 45.16399 17.35122 36047 ft 521 kts 125°
2026-05-07 12:06 45.13184 17.40447 36047 ft 521 kts 126°
2026-05-07 12:06 45.08116 17.47765 36047 ft 525 kts 131°
2026-05-07 12:07 45.02873 17.54902 36047 ft 525 kts 129°
2026-05-07 12:07 44.97723 17.62100 36047 ft 524 kts 128°
2026-05-07 12:08 44.92577 17.69301 36047 ft 524 kts 129°
2026-05-07 12:08 44.87437 17.76439 36047 ft 526 kts 129°
2026-05-07 12:09 44.82278 17.83610 36046 ft 524 kts 128°
2026-05-07 12:09 44.77281 17.90956 36046 ft 517 kts 121°
2026-05-07 12:10 44.73146 17.99125 36046 ft 513 kts 116°
2026-05-07 12:10 44.69115 18.07393 36046 ft 514 kts 116°
2026-05-07 12:11 44.65051 18.15584 36048 ft 513 kts 117°
2026-05-07 12:11 44.60971 18.23686 36049 ft 512 kts 116°
2026-05-07 12:12 44.56913 18.31810 36048 ft 513 kts 116°
2026-05-07 12:12 44.52814 18.40022 36048 ft 512 kts 116°
2026-05-07 12:13 44.48808 18.48117 36044 ft 510 kts 116°
2026-05-07 12:13 44.44780 18.56324 36047 ft 513 kts 116°
2026-05-07 12:14 44.40747 18.64518 36044 ft 513 kts 116°
2026-05-07 12:14 44.36694 18.72674 36049 ft 512 kts 116°
2026-05-07 12:15 44.32653 18.80755 36047 ft 511 kts 116°
2026-05-07 12:15 44.28550 18.88883 36047 ft 511 kts 117°
2026-05-07 12:16 44.24482 18.96969 36051 ft 514 kts 117°
2026-05-07 12:16 44.20387 19.05054 36045 ft 508 kts 119°
2026-05-07 12:17 44.16343 19.12964 36047 ft 497 kts 121°
2026-05-07 12:17 44.12515 19.20766 36047 ft 484 kts 117°
2026-05-07 12:18 44.09256 19.28846 36048 ft 481 kts 115°
2026-05-07 12:18 44.05936 19.36948 36047 ft 484 kts 116°
2026-05-07 12:19 44.02612 19.45021 36047 ft 484 kts 116°
2026-05-07 12:19 43.99283 19.53105 36047 ft 484 kts 116°
2026-05-07 12:20 43.95949 19.61172 36047 ft 484 kts 116°
2026-05-07 12:20 43.92609 19.69232 36047 ft 484 kts 117°
2026-05-07 12:21 43.89274 19.77261 36047 ft 484 kts 117°
2026-05-07 12:21 43.85930 19.85287 36047 ft 484 kts 116°
2026-05-07 12:22 43.82571 19.93330 36046 ft 484 kts 117°
2026-05-07 12:22 43.79196 20.01386 36047 ft 484 kts 117°
2026-05-07 12:23 43.75840 20.09375 36047 ft 484 kts 117°
2026-05-07 12:23 43.72453 20.17413 36047 ft 484 kts 117°
2026-05-07 12:24 43.69076 20.25407 36047 ft 484 kts 116°
2026-05-07 12:24 43.65685 20.33414 36047 ft 484 kts 117°
2026-05-07 12:25 43.62290 20.41407 36046 ft 484 kts 117°
2026-05-07 12:25 43.58882 20.49407 36047 ft 484 kts 116°
2026-05-07 12:26 43.55479 20.57374 36047 ft 484 kts 117°
2026-05-07 12:26 43.52068 20.65337 36046 ft 484 kts 117°
2026-05-07 12:27 43.48659 20.73274 36047 ft 484 kts 117°
2026-05-07 12:27 43.45246 20.81198 36047 ft 484 kts 117°
2026-05-07 12:28 43.41775 20.89097 36045 ft 485 kts 121°
2026-05-07 12:28 43.37629 20.96484 36048 ft 487 kts 128°
2026-05-07 12:29 43.33460 21.03658 36055 ft 482 kts 128°
2026-05-07 12:29 43.29345 21.10875 36077 ft 474 kts 128°
2026-05-07 12:30 43.25310 21.17916 36100 ft 471 kts 128°
2026-05-07 12:30 43.21248 21.24947 36110 ft 473 kts 129°
2026-05-07 12:31 43.17158 21.31947 36109 ft 473 kts 129°
2026-05-07 12:31 43.13044 21.38899 36111 ft 473 kts 129°
2026-05-07 12:32 43.08933 21.45968 36112 ft 476 kts 128°
2026-05-07 12:32 43.04870 21.53000 36108 ft 474 kts 128°
2026-05-07 12:33 42.98729 21.63390 36101 ft 473 kts 129°
2026-05-07 12:33 42.94704 21.70171 36100 ft 474 kts 130°
2026-05-07 12:34 42.90566 21.77156 36101 ft 473 kts 130°
2026-05-07 12:34 42.86538 21.83918 36103 ft 474 kts 130°
2026-05-07 12:35 42.82412 21.90895 36102 ft 475 kts 129°
2026-05-07 12:35 42.78333 21.97868 36101 ft 474 kts 129°
2026-05-07 12:36 42.74382 22.04135 36099 ft 472 kts 139°
2026-05-07 12:36 42.71487 22.07165 36103 ft 471 kts 150°
2026-05-07 12:36 42.68594 22.09173 36105 ft 468 kts 161°
2026-05-07 12:37 42.62420 22.11675 36114 ft 467 kts 166°
2026-05-07 12:37 42.56181 22.14177 36120 ft 467 kts 165°
2026-05-07 12:38 42.50015 22.16701 36121 ft 466 kts 165°
2026-05-07 12:38 42.43795 22.19200 36124 ft 468 kts 165°
2026-05-07 12:39 42.37608 22.21673 36128 ft 466 kts 166°
2026-05-07 12:39 42.31397 22.24093 36129 ft 466 kts 166°
2026-05-07 12:40 42.25163 22.26463 36127 ft 466 kts 166°
2026-05-07 12:40 42.20025 22.28439 36128 ft 467 kts 166°
2026-05-07 12:41 42.12740 22.31167 36128 ft 466 kts 167°
2026-05-07 12:41 42.06544 22.33481 36128 ft 466 kts 166°
2026-05-07 12:42 42.00316 22.35823 36129 ft 467 kts 166°
2026-05-07 12:42 41.94276 22.39097 36130 ft 470 kts 155°
2026-05-07 12:43 41.88482 22.42989 36128 ft 469 kts 155°
2026-05-07 12:43 41.82658 22.46747 36127 ft 469 kts 156°
2026-05-07 12:44 41.76768 22.50557 36127 ft 469 kts 155°
2026-05-07 12:44 41.70931 22.54352 36129 ft 470 kts 155°
2026-05-07 12:45 41.65065 22.58176 36127 ft 469 kts 155°
2026-05-07 12:45 41.59252 22.61965 36135 ft 470 kts 155°
2026-05-07 12:46 41.53391 22.65776 36143 ft 469 kts 156°
2026-05-07 12:46 41.47608 22.69523 36152 ft 469 kts 156°
2026-05-07 12:47 41.41789 22.73313 36157 ft 470 kts 156°
2026-05-07 12:47 41.35964 22.77098 36155 ft 470 kts 156°
2026-05-07 12:48 41.31269 22.80361 36155 ft 470 kts 150°
2026-05-07 12:48 41.24992 22.85998 36156 ft 472 kts 148°
2026-05-07 12:49 41.19541 22.90717 36153 ft 470 kts 150°
2026-05-07 12:49 41.14099 22.95402 36155 ft 469 kts 149°
2026-05-07 12:50 41.08698 23.00190 36154 ft 469 kts 146°
2026-05-07 12:50 41.03714 23.05681 36154 ft 467 kts 143°
2026-05-07 12:51 40.98763 23.11105 36155 ft 461 kts 145°
2026-05-07 12:51 40.93850 23.16381 36155 ft 459 kts 145°
2026-05-07 12:52 40.88948 23.21657 36155 ft 460 kts 145°
2026-05-07 12:52 40.85330 23.25537 36155 ft 461 kts 145°
2026-05-07 12:53 40.80367 23.30849 36154 ft 461 kts 145°
2026-05-07 12:53 40.75424 23.36128 36155 ft 460 kts 145°
2026-05-07 12:54 40.70447 23.41432 36155 ft 460 kts 145°
2026-05-07 12:54 40.65483 23.46711 36155 ft 460 kts 145°
2026-05-07 12:55 40.60511 23.51988 36155 ft 460 kts 145°
2026-05-07 12:55 40.55570 23.57222 36155 ft 460 kts 145°
2026-05-07 12:56 40.50580 23.62496 36155 ft 460 kts 145°
2026-05-07 12:56 40.45644 23.67705 36154 ft 460 kts 146°
2026-05-07 12:57 40.40669 23.72942 36155 ft 460 kts 146°
2026-05-07 12:57 40.35699 23.78165 36152 ft 460 kts 146°
2026-05-07 12:58 40.30849 23.83253 36140 ft 460 kts 146°
2026-05-07 12:58 40.25778 23.88561 36128 ft 459 kts 146°
2026-05-07 12:59 40.20797 23.93764 36117 ft 460 kts 146°
2026-05-07 12:59 40.15788 23.98939 36105 ft 460 kts 146°
2026-05-07 13:00 40.10805 24.04151 36101 ft 461 kts 145°
2026-05-07 13:00 40.05816 24.09344 36101 ft 460 kts 146°
2026-05-07 13:01 40.00834 24.14513 36101 ft 459 kts 146°
2026-05-07 13:01 39.95849 24.19674 36101 ft 460 kts 146°
2026-05-07 13:02 39.90839 24.24849 36101 ft 460 kts 146°
2026-05-07 13:02 39.85866 24.29975 36107 ft 460 kts 146°
2026-05-07 13:03 39.80872 24.35112 36112 ft 460 kts 145°
2026-05-07 13:03 39.75850 24.40268 36118 ft 460 kts 146°
2026-05-07 13:04 39.70843 24.45399 36124 ft 460 kts 146°
2026-05-07 13:04 39.65863 24.50493 36128 ft 460 kts 145°
2026-05-07 13:05 39.60822 24.55639 36128 ft 460 kts 146°
2026-05-07 13:05 39.55815 24.60740 36128 ft 460 kts 146°
2026-05-07 13:06 39.50822 24.65819 36128 ft 460 kts 146°
2026-05-07 13:06 39.45787 24.70929 36128 ft 459 kts 146°
2026-05-07 13:07 39.40777 24.76001 36128 ft 459 kts 146°
2026-05-07 13:07 39.35775 24.81056 36128 ft 459 kts 146°
2026-05-07 13:08 39.30754 24.86120 36128 ft 459 kts 146°
2026-05-07 13:08 39.25794 24.91183 36128 ft 452 kts 146°
2026-05-07 13:09 39.20809 24.96136 36129 ft 458 kts 146°
2026-05-07 13:09 39.15767 25.01190 36127 ft 463 kts 146°
2026-05-07 13:10 39.10682 25.06285 36128 ft 465 kts 146°
2026-05-07 13:10 39.05605 25.11361 36128 ft 466 kts 145°
2026-05-07 13:11 39.00471 25.16485 36128 ft 467 kts 145°
2026-05-07 13:11 38.95353 25.21586 36129 ft 467 kts 145°
2026-05-07 13:12 38.90237 25.26673 36133 ft 467 kts 145°
2026-05-07 13:12 38.85144 25.31729 36142 ft 465 kts 145°
2026-05-07 13:13 38.80026 25.36799 36150 ft 465 kts 145°
2026-05-07 13:13 38.74937 25.41831 36154 ft 466 kts 145°
2026-05-07 13:14 38.69796 25.46905 36155 ft 466 kts 145°
2026-05-07 13:14 38.64674 25.51952 36155 ft 466 kts 145°
2026-05-07 13:15 38.59563 25.56978 36155 ft 466 kts 145°
2026-05-07 13:15 38.54461 25.61986 36155 ft 466 kts 145°
2026-05-07 13:16 38.49351 25.66993 36155 ft 465 kts 146°
2026-05-07 13:16 38.44212 25.72019 36155 ft 465 kts 146°
2026-05-07 13:17 38.39101 25.77014 36155 ft 465 kts 146°
2026-05-07 13:17 38.33986 25.82003 36155 ft 466 kts 146°
2026-05-07 13:18 38.28861 25.86958 36154 ft 465 kts 147°
2026-05-07 13:18 38.23376 25.91174 36154 ft 460 kts 159°
2026-05-07 13:19 38.17400 25.93986 36155 ft 458 kts 163°
2026-05-07 13:19 38.11464 25.96744 36155 ft 458 kts 163°
2026-05-07 13:20 38.05484 25.99507 36155 ft 458 kts 163°
2026-05-07 13:20 37.99524 26.02231 36155 ft 458 kts 163°
2026-05-07 13:21 37.93532 26.04960 36155 ft 458 kts 163°
2026-05-07 13:21 37.87575 26.07663 36155 ft 458 kts 163°
2026-05-07 13:22 37.81604 26.10365 36155 ft 458 kts 163°
2026-05-07 13:22 37.75607 26.13073 36155 ft 458 kts 163°
2026-05-07 13:23 37.69649 26.15757 36155 ft 458 kts 163°
2026-05-07 13:23 37.63669 26.18446 36155 ft 458 kts 163°
2026-05-07 13:24 37.57680 26.21134 36155 ft 458 kts 163°
2026-05-07 13:24 37.51707 26.23810 36155 ft 458 kts 163°
2026-05-07 13:25 37.45750 26.26474 36155 ft 458 kts 163°
2026-05-07 13:25 37.39786 26.29137 36152 ft 458 kts 163°
2026-05-07 13:26 37.33799 26.31806 36149 ft 458 kts 163°
2026-05-07 13:26 37.27839 26.34458 36149 ft 458 kts 163°
2026-05-07 13:27 37.22836 26.36681 36151 ft 458 kts 163°
2026-05-07 13:27 37.15875 26.39770 36154 ft 458 kts 163°
2026-05-07 13:28 37.09857 26.42439 36155 ft 458 kts 163°
2026-05-07 13:28 37.03878 26.45085 36155 ft 458 kts 163°
2026-05-07 13:29 36.97922 26.47717 36155 ft 457 kts 164°
2026-05-07 13:29 36.91918 26.50365 36155 ft 457 kts 164°
2026-05-07 13:30 36.85952 26.52990 36155 ft 457 kts 164°
2026-05-07 13:30 36.79973 26.55612 36155 ft 457 kts 164°
2026-05-07 13:31 36.74014 26.58222 36155 ft 457 kts 164°
2026-05-07 13:31 36.68006 26.60849 36155 ft 457 kts 164°
2026-05-07 13:32 36.62026 26.63459 36155 ft 457 kts 164°
2026-05-07 13:32 36.56053 26.66063 36155 ft 457 kts 165°
2026-05-07 13:33 36.50095 26.68656 36155 ft 457 kts 165°
2026-05-07 13:33 36.44130 26.71247 36155 ft 457 kts 165°
2026-05-07 13:34 36.35147 26.75142 36155 ft 457 kts 165°
2026-05-07 13:35 36.29192 26.77718 36155 ft 457 kts 165°
2026-05-07 13:35 36.23202 26.80306 36155 ft 457 kts 165°
2026-05-07 13:36 36.17195 26.82896 36155 ft 457 kts 165°
2026-05-07 13:36 36.11235 26.85463 36155 ft 457 kts 165°
2026-05-07 13:37 36.05253 26.88034 36155 ft 457 kts 165°
2026-05-07 13:37 35.99290 26.90593 36155 ft 457 kts 165°
2026-05-07 13:38 35.93285 26.93166 36155 ft 456 kts 165°
2026-05-07 13:38 35.87314 26.95720 36155 ft 457 kts 164°
2026-05-07 13:39 35.81344 26.98270 36155 ft 457 kts 164°
2026-05-07 13:39 35.75365 27.00787 36155 ft 456 kts 164°
2026-05-07 13:40 35.69362 27.03307 36155 ft 456 kts 164°
2026-05-07 13:40 35.63392 27.05813 36155 ft 456 kts 164°
2026-05-07 13:41 35.57423 27.08313 36155 ft 456 kts 164°
2026-05-07 13:41 35.51431 27.10820 36155 ft 456 kts 164°
2026-05-07 13:42 35.45470 27.13394 36154 ft 457 kts 160°
2026-05-07 13:42 35.39862 27.17097 36155 ft 462 kts 147°
2026-05-07 13:43 35.34820 27.21944 36155 ft 463 kts 144°
2026-05-07 13:43 35.29743 27.26770 36155 ft 463 kts 144°
2026-05-07 13:44 35.24681 27.31599 36155 ft 464 kts 144°
2026-05-07 13:44 35.19621 27.36444 36155 ft 463 kts 144°
2026-05-07 13:45 35.14577 27.41270 36155 ft 463 kts 144°
2026-05-07 13:45 35.09526 27.46102 36155 ft 463 kts 144°
2026-05-07 13:46 35.04488 27.50914 36155 ft 463 kts 144°
2026-05-07 13:46 34.99412 27.55742 36155 ft 465 kts 145°
2026-05-07 13:47 34.94310 27.60582 36155 ft 469 kts 146°
2026-05-07 13:47 34.89136 27.65486 36155 ft 472 kts 148°
2026-05-07 13:48 34.83954 27.70373 36154 ft 472 kts 148°
2026-05-07 13:48 34.78772 27.75222 36154 ft 471 kts 148°
2026-05-07 13:49 34.73625 27.80132 36155 ft 473 kts 148°
2026-05-07 13:49 34.68458 27.85029 36154 ft 472 kts 148°
2026-05-07 13:50 34.63282 27.89868 36155 ft 471 kts 148°
2026-05-07 13:50 34.58116 27.94696 36154 ft 471 kts 148°
2026-05-07 13:51 34.52936 27.99534 36155 ft 472 kts 148°
2026-05-07 13:51 34.47742 28.04391 36155 ft 471 kts 148°
2026-05-07 13:52 34.42567 28.09214 36155 ft 471 kts 148°
2026-05-07 13:52 34.37418 28.14005 36155 ft 472 kts 148°
2026-05-07 13:53 34.32236 28.18849 36155 ft 472 kts 148°
2026-05-07 13:53 34.27068 28.23702 36155 ft 472 kts 148°
2026-05-07 13:54 34.21899 28.28529 36155 ft 471 kts 148°
2026-05-07 13:54 34.16701 28.33326 36155 ft 472 kts 148°
2026-05-07 13:55 34.11508 28.38102 36155 ft 472 kts 148°
2026-05-07 13:55 34.06294 28.42935 36154 ft 472 kts 148°
2026-05-07 13:56 34.01103 28.47736 36155 ft 472 kts 148°
2026-05-07 13:56 33.95926 28.52467 36155 ft 472 kts 148°
2026-05-07 13:57 33.90704 28.57248 36155 ft 472 kts 148°
2026-05-07 13:57 33.85501 28.62012 36155 ft 472 kts 148°
2026-05-07 13:58 33.80304 28.66767 36155 ft 471 kts 149°
2026-05-07 13:58 33.75087 28.71547 36155 ft 472 kts 149°
2026-05-07 13:59 33.69944 28.76419 36154 ft 474 kts 144°
2026-05-07 13:59 33.65183 28.81887 36154 ft 477 kts 142°
2026-05-07 14:00 33.60367 28.87334 36141 ft 477 kts 143°
2026-05-07 14:00 33.55553 28.92739 36121 ft 477 kts 143°
2026-05-07 14:01 33.50721 28.98159 36107 ft 477 kts 143°
2026-05-07 14:01 33.45883 29.03567 36101 ft 478 kts 144°
2026-05-07 14:02 33.41037 29.08976 36101 ft 477 kts 144°
2026-05-07 14:02 33.36192 29.14371 36101 ft 477 kts 144°
2026-05-07 14:03 33.31331 29.19775 36100 ft 477 kts 144°
2026-05-07 14:03 33.26503 29.25134 36101 ft 478 kts 144°
2026-05-07 14:04 33.21641 29.30521 36101 ft 478 kts 144°
2026-05-07 14:04 33.16788 29.35892 36101 ft 478 kts 144°
2026-05-07 14:05 33.11922 29.41268 36100 ft 477 kts 144°
2026-05-07 14:05 33.07050 29.46637 36101 ft 481 kts 145°
2026-05-07 14:06 33.02108 29.52073 36101 ft 489 kts 147°
2026-05-07 14:06 32.97104 29.57572 36101 ft 496 kts 148°
2026-05-07 14:07 32.92033 29.63141 36101 ft 497 kts 148°
2026-05-07 14:07 32.86988 29.68676 36100 ft 493 kts 149°
2026-05-07 14:08 32.82788 29.73270 36102 ft 494 kts 149°
2026-05-07 14:08 32.77726 29.78796 36101 ft 496 kts 148°
2026-05-07 14:09 32.71838 29.85219 36101 ft 495 kts 148°
2026-05-07 14:09 32.66782 29.90725 36101 ft 494 kts 148°
2026-05-07 14:10 32.61718 29.96228 36101 ft 495 kts 149°
2026-05-07 14:10 32.56650 30.01726 36102 ft 495 kts 149°
2026-05-07 14:11 32.51602 30.07196 36101 ft 494 kts 149°
2026-05-07 14:11 32.46539 30.12667 36101 ft 496 kts 149°
2026-05-07 14:12 32.41453 30.18148 36101 ft 496 kts 149°
2026-05-07 14:12 32.36387 30.23602 36101 ft 495 kts 149°
2026-05-07 14:13 32.31296 30.29073 36101 ft 494 kts 149°
2026-05-07 14:13 32.26211 30.34524 36100 ft 495 kts 149°
2026-05-07 14:14 32.21152 30.39944 36101 ft 495 kts 149°
2026-05-07 14:14 32.16075 30.45373 36101 ft 494 kts 149°
2026-05-07 14:15 32.10988 30.50804 36101 ft 495 kts 148°
2026-05-07 14:15 32.05915 30.56210 36101 ft 495 kts 149°
2026-05-07 14:16 32.00797 30.61661 36025 ft 496 kts 149°
2026-05-07 14:16 31.98257 30.64359 35533 ft 498 kts 148°
2026-05-07 14:16 31.95722 30.67064 35079 ft 490 kts 149°
2026-05-07 14:16 31.93212 30.69745 34624 ft 482 kts 149°
2026-05-07 14:17 31.90770 30.72342 34177 ft 474 kts 150°
2026-05-07 14:17 31.88353 30.74905 33727 ft 467 kts 150°
2026-05-07 14:17 31.85960 30.77440 33276 ft 461 kts 149°
2026-05-07 14:17 31.83590 30.79948 32825 ft 455 kts 149°
2026-05-07 14:18 31.81261 30.82412 32376 ft 450 kts 149°
2026-05-07 14:18 31.78947 30.84857 31924 ft 445 kts 149°
2026-05-07 14:18 31.76673 30.87257 31475 ft 440 kts 149°
2026-05-07 14:18 31.74405 30.89649 31024 ft 436 kts 149°
2026-05-07 14:19 31.72173 30.92000 30575 ft 431 kts 149°
2026-05-07 14:19 31.70697 30.93555 30276 ft 429 kts 149°
2026-05-07 14:19 31.67863 30.96538 29696 ft 424 kts 148°
2026-05-07 14:19 31.67076 30.97366 29534 ft 423 kts 148°
2026-05-07 14:20 31.64889 30.99666 29081 ft 419 kts 148°
2026-05-07 14:20 31.63456 31.01172 28784 ft 417 kts 148°
2026-05-07 14:20 31.60609 31.04163 28186 ft 413 kts 147°
2026-05-07 14:20 31.58485 31.06392 27736 ft 410 kts 147°
2026-05-07 14:21 31.56331 31.08546 27283 ft 402 kts 152°
2026-05-07 14:21 31.54046 31.10364 26831 ft 391 kts 160°
2026-05-07 14:21 31.51660 31.11777 26381 ft 379 kts 168°
2026-05-07 14:21 31.49205 31.12760 25819 ft 372 kts 176°
2026-05-07 14:22 31.46704 31.13333 25023 ft 373 kts 181°
2026-05-07 14:22 31.44119 31.13798 24223 ft 380 kts 180°
2026-05-07 14:22 31.41517 31.14306 23426 ft 386 kts 179°
2026-05-07 14:22 31.38881 31.14829 22630 ft 391 kts 179°
2026-05-07 14:23 31.36193 31.15347 21827 ft 395 kts 178°
2026-05-07 14:23 31.33478 31.15863 21022 ft 398 kts 178°
2026-05-07 14:23 31.30750 31.16380 20221 ft 400 kts 177°
2026-05-07 14:23 31.28003 31.16900 19417 ft 402 kts 177°
2026-05-07 14:24 31.25269 31.17415 18620 ft 403 kts 176°
2026-05-07 14:24 31.22507 31.17782 17816 ft 399 kts 182°
2026-05-07 14:24 31.19748 31.17906 17015 ft 398 kts 183°
2026-05-07 14:24 31.17022 31.18022 16241 ft 397 kts 182°
2026-05-07 14:25 31.14283 31.18172 15591 ft 392 kts 181°
2026-05-07 14:25 31.11562 31.18320 14932 ft 388 kts 181°
2026-05-07 14:25 31.08909 31.18461 14284 ft 384 kts 181°
2026-05-07 14:25 31.06252 31.18602 13630 ft 380 kts 180°
2026-05-07 14:26 31.03665 31.18740 12987 ft 377 kts 180°
2026-05-07 14:26 31.01054 31.18879 12332 ft 373 kts 180°
2026-05-07 14:26 30.98476 31.19017 11680 ft 370 kts 179°
2026-05-07 14:26 30.95933 31.19152 11132 ft 364 kts 179°
2026-05-07 14:27 30.93475 31.19285 11078 ft 344 kts 179°
2026-05-07 14:27 30.91155 31.19411 11075 ft 325 kts 179°
2026-05-07 14:27 30.88994 31.19416 11075 ft 306 kts 185°
2026-05-07 14:27 30.86877 31.19303 11034 ft 303 kts 185°
2026-05-07 14:28 30.84742 31.19207 10664 ft 308 kts 184°
2026-05-07 14:28 30.82616 31.19112 10289 ft 305 kts 184°
2026-05-07 14:28 30.80539 31.19016 9920 ft 302 kts 184°
2026-05-07 14:28 30.78431 31.18918 9542 ft 300 kts 184°
2026-05-07 14:29 30.76362 31.18820 9169 ft 299 kts 184°
2026-05-07 14:29 30.74290 31.18718 8686 ft 301 kts 184°
2026-05-07 14:29 30.72184 31.18612 8185 ft 303 kts 184°
2026-05-07 14:29 30.70089 31.18501 7688 ft 304 kts 184°
2026-05-07 14:30 30.67975 31.18385 7188 ft 305 kts 184°
2026-05-07 14:30 30.65862 31.18264 6689 ft 306 kts 184°
2026-05-07 14:30 30.63747 31.18139 6198 ft 307 kts 184°
2026-05-07 14:30 30.61663 31.18012 6078 ft 293 kts 184°
2026-05-07 14:31 30.59656 31.17892 6076 ft 286 kts 184°
2026-05-07 14:31 30.57676 31.17774 6074 ft 290 kts 184°
2026-05-07 14:31 30.55659 31.17653 6074 ft 290 kts 184°
2026-05-07 14:31 30.53655 31.17533 6074 ft 290 kts 184°
2026-05-07 14:32 30.51638 31.17412 6074 ft 290 kts 184°
2026-05-07 14:32 30.49622 31.17291 6074 ft 290 kts 184°
2026-05-07 14:32 30.47628 31.17171 6074 ft 290 kts 184°
2026-05-07 14:32 30.45595 31.17049 6074 ft 290 kts 184°
2026-05-07 14:33 30.43576 31.16927 5955 ft 293 kts 184°
2026-05-07 14:33 30.41554 31.16804 5567 ft 293 kts 184°
2026-05-07 14:33 30.39531 31.16676 5194 ft 291 kts 184°
2026-05-07 14:33 30.37514 31.16546 4818 ft 289 kts 184°
2026-05-07 14:34 30.35532 31.16414 4606 ft 281 kts 184°
2026-05-07 14:34 30.33608 31.16286 4619 ft 281 kts 184°
2026-05-07 14:34 30.31678 31.16158 4603 ft 267 kts 184°
2026-05-07 14:34 30.29892 31.16042 4600 ft 252 kts 184°
2026-05-07 14:35 30.28191 31.15934 4598 ft 237 kts 184°
2026-05-07 14:35 30.26622 31.15838 4607 ft 219 kts 184°
2026-05-07 14:35 30.25136 31.15750 4466 ft 209 kts 184°
2026-05-07 14:35 30.23701 31.15664 4157 ft 204 kts 184°
2026-05-07 14:36 30.22302 31.15578 3794 ft 199 kts 184°
2026-05-07 14:36 30.20937 31.15499 3435 ft 195 kts 184°
2026-05-07 14:36 30.19608 31.15412 3079 ft 191 kts 184°
2026-05-07 14:36 30.18302 31.15322 2725 ft 188 kts 184°
2026-05-07 14:37 30.17038 31.15232 2576 ft 178 kts 184°
2026-05-07 14:37 30.14475 31.15048 2603 ft 186 kts 184°
2026-05-07 14:37 30.13205 31.14957 2602 ft 186 kts 184°
2026-05-07 14:38 30.11902 31.14863 2600 ft 186 kts 184°
2026-05-07 14:38 30.10617 31.14923 2584 ft 186 kts 162°
2026-05-07 14:38 30.09430 31.15496 2601 ft 185 kts 154°
2026-05-07 14:38 30.08258 31.16101 2597 ft 185 kts 154°
2026-05-07 14:39 30.07076 31.16710 2616 ft 194 kts 154°
2026-05-07 14:39 30.05816 31.17368 3039 ft 209 kts 154°
2026-05-07 14:39 30.04413 31.18114 2874 ft 233 kts 154°
2026-05-07 14:39 30.02951 31.18883 2404 ft 225 kts 154°
2026-05-07 14:40 30.01598 31.19588 2423 ft 203 kts 154°
2026-05-07 14:40 30.00295 31.20300 2430 ft 208 kts 147°
2026-05-07 14:40 29.99325 31.21469 2433 ft 202 kts 111°
2026-05-07 14:40 29.99113 31.23000 2443 ft 193 kts 81°
2026-05-07 14:41 29.99235 31.24564 2429 ft 193 kts 75°
2026-05-07 14:41 29.99734 31.25965 2439 ft 187 kts 52°
2026-05-07 14:41 30.00452 31.27216 2431 ft 187 kts 52°
2026-05-07 14:41 30.01125 31.28489 2432 ft 188 kts 56°
2026-05-07 14:42 30.01748 31.29831 2432 ft 188 kts 57°
2026-05-07 14:42 30.02344 31.31130 2419 ft 174 kts 57°
2026-05-07 14:42 30.02903 31.32333 2454 ft 169 kts 56°
2026-05-07 14:42 30.03542 31.33468 2432 ft 166 kts 45°
2026-05-07 14:43 30.04387 31.34373 2304 ft 165 kts 31°
2026-05-07 14:43 30.05367 31.35007 2042 ft 161 kts 24°
2026-05-07 14:43 30.06323 31.35684 1814 ft 161 kts 32°
2026-05-07 14:43 30.07215 31.36459 1594 ft 162 kts 43°
2026-05-07 14:44 30.07950 31.37457 1290 ft 163 kts 44°
2026-05-07 14:44 30.08704 31.38398 1029 ft 161 kts 45°
2026-05-07 14:44 30.09498 31.39320 646 ft 161 kts 46°
2026-05-07 14:44 30.10253 31.40230 401 ft 157 kts 47°
2026-05-07 14:45 30.10964 31.41140 382 ft 134 kts 46°
2026-05-07 14:45 30.11467 31.41811 371 ft 93 kts 47°
2026-05-07 14:45 30.11858 31.42198 367 ft 52 kts 17°
2026-05-07 14:45 30.12039 31.42201 360 ft 0 kts 318°
2026-05-07 14:46 30.12042 31.42197 360 ft 0 kts 286°
2026-05-07 14:46 30.12017 31.42148 359 ft 6 kts 229°
2026-05-07 14:46 30.11969 31.42087 358 ft 15 kts 227°
2026-05-07 14:46 30.11872 31.41961 357 ft 26 kts 229°
2026-05-07 14:47 30.11740 31.41760 353 ft 35 kts 231°
2026-05-07 14:47 30.11554 31.41540 355 ft 35 kts 223°
2026-05-07 14:47 30.11395 31.41314 360 ft 37 kts 234°
2026-05-07 14:47 30.11228 31.41097 365 ft 35 kts 227°
2026-05-07 14:48 30.11088 31.40866 369 ft 32 kts 260°
2026-05-07 14:48 30.11080 31.40711 364 ft 9 kts 271°
2026-05-07 14:48 30.11118 31.40646 359 ft 12 kts 323°